Fremont, MI

7:41 PM EST on November 17, 2019 (GMT -0500)
Fremont

Weather History for KFFX - September, 2019

Change the Weather History Date:

Thursday, September 26, 2019

  Actual Average (KMKG) Record (KMKG)
Temperature  
Mean Temperature 58 °F -  
Max Temperature 65 °F 66 °F 88 °F (2017)
Min Temperature 52 °F 48 °F 28 °F (1947)
Degree Days  
Heating Degree Days 6    
Growing Degree Days 8 (Base 50)    
Moisture  
Dew Point 38 °F    
Average Humidity 46    
Maximum Humidity 66    
Minimum Humidity 20    
Precipitation  
Precipitation 0.00 in - - ()
Sea Level Pressure  
Sea Level Pressure 29.87 in    
Wind  
Wind Speed 7 mph ()    
Max Wind Speed 21 mph    
Max Gust Speed 30 mph    
Visibility 10.0 miles    
Events      
Averages and records for this station are not official NWS values.
T = Trace of Precipitation, MM = Missing Value Source: Averaged Metar Reports

Daily Weather History Graph

Daily Weather History Graph

Search for Another Location

Airport or City:

Astronomy

Sep. 26, 2019 Rise Set
Actual Time 7:35 AM EDT 7:34 PM EDT
Civil Twilight 7:06 AM EDT 8:02 PM EDT
Nautical Twilight 6:33 AM EDT 8:36 PM EDT
Astronomical Twilight 5:59 AM EDT 9:09 PM EDT
Moon 4:33 AM EDT (9/26) 6:53 PM EDT (9/26)
Length of Visible Light 12h 55m
Length of Day
11h 58m
Waning Crescent, 7% of the Moon is Illuminated
Sep 26
Waning Crescent
Sep 28
New
Oct 5
First Quarter
Oct 13
Full
Oct 21
Last Quarter

Hourly Weather History & Observations

Time (EDT) Temp. Dew Point Humidity Pressure Visibility Wind Dir Wind Speed Gust Speed Precip Events Conditions
12:15 AM 62.6 °F 43.5 °F 50% 29.78 in 10.0 mi WSW 4.6 mph - N/A   Mostly Cloudy
12:35 AM 62.8 °F 42.3 °F 47% 29.79 in 10.0 mi West 8.1 mph - N/A   Scattered Clouds
12:59 AM 62.4 °F 42.3 °F 48% 29.78 in 10.0 mi West 4.6 mph - N/A   Scattered Clouds
1:17 AM 62.1 °F 43.3 °F 50% 29.77 in 10.0 mi WSW 3.5 mph - N/A   Scattered Clouds
1:35 AM 61.9 °F 43.9 °F 52% 29.76 in 10.0 mi West 4.6 mph - N/A   Scattered Clouds
1:36 AM 61.9 °F 43.9 °F 52% 29.77 in 10.0 mi West 4.6 mph - N/A   Scattered Clouds
1:55 AM 61.7 °F 43.2 °F 51% 29.77 in 10.0 mi West 6.9 mph - N/A   Scattered Clouds
2:15 AM 61.9 °F 42.8 °F 50% 29.77 in 10.0 mi West 6.9 mph - N/A   Overcast
2:37 AM 61.5 °F 42.6 °F 50% 29.78 in 10.0 mi West 5.8 mph - N/A   Mostly Cloudy
2:56 AM 61.9 °F 42.1 °F 48% 29.77 in 10.0 mi West 9.2 mph - N/A   Scattered Clouds
3:15 AM 61.5 °F 42.1 °F 49% 29.75 in 10.0 mi WNW 6.9 mph - N/A   Clear
3:16 AM 61.5 °F 42.1 °F 49% 29.75 in 10.0 mi WNW 6.9 mph - N/A   Clear
3:35 AM 59.9 °F 42.3 °F 52% 29.75 in 10.0 mi WNW 5.8 mph - N/A   Clear
3:36 AM 59.9 °F 42.3 °F 52% 29.75 in 10.0 mi WNW 5.8 mph - N/A   Clear
3:59 AM 59.5 °F 42.3 °F 53% 29.76 in 10.0 mi West 4.6 mph - N/A   Clear
4:17 AM 59.0 °F 42.8 °F 55% 29.76 in 10.0 mi West 6.9 mph - N/A   Clear
4:35 AM 58.6 °F 42.8 °F 56% 29.76 in 10.0 mi West 6.9 mph - N/A   Clear
4:55 AM 57.6 °F 43.0 °F 58% 29.78 in 10.0 mi West 6.9 mph - N/A   Clear
5:15 AM 56.3 °F 43.3 °F 62% 29.78 in 10.0 mi WNW 6.9 mph - N/A   Clear
5:20 AM 56.5 °F 43.2 °F 61% 29.78 in 10.0 mi WNW 8.1 mph - N/A   Clear
5:38 AM 57.2 °F 42.1 °F 57% 29.79 in 10.0 mi WNW 8.1 mph - N/A   Clear
5:56 AM 55.8 °F 42.1 °F 60% 29.80 in 10.0 mi West 6.9 mph - N/A   Clear
6:15 AM 55.4 °F 41.7 °F 60% 29.81 in 10.0 mi West 6.9 mph - N/A   Clear
6:16 AM 55.4 °F 41.5 °F 60% 29.81 in 10.0 mi West 6.9 mph - N/A   Clear
6:35 AM 55.4 °F 41.0 °F 58% 29.82 in 10.0 mi West 6.9 mph - N/A   Clear
6:59 AM 54.5 °F 40.3 °F 59% 29.83 in 10.0 mi West 6.9 mph - N/A   Clear
7:17 AM 53.8 °F 39.9 °F 59% 29.84 in 10.0 mi West 5.8 mph - N/A   Clear
7:35 AM 53.1 °F 39.7 °F 61% 29.84 in 10.0 mi West 5.8 mph - N/A   Clear
7:36 AM 52.9 °F 39.7 °F 61% 29.84 in 10.0 mi West 5.8 mph - N/A   Clear
7:55 AM 52.7 °F 39.9 °F 62% 29.85 in 10.0 mi West 5.8 mph - N/A   Clear
8:15 AM 53.8 °F 39.9 °F 59% 29.85 in 10.0 mi West 5.8 mph - N/A   Clear
8:38 AM 54.7 °F 40.6 °F 59% 29.86 in 10.0 mi WNW 5.8 mph - N/A   Clear
8:55 AM 55.9 °F 40.1 °F 55% 29.87 in 10.0 mi WNW 6.9 mph - N/A   Clear
9:15 AM 57.2 °F 39.6 °F 52% 29.87 in 10.0 mi WNW 8.1 mph - N/A   Clear
9:35 AM 58.5 °F 39.7 °F 50% 29.87 in 10.0 mi WNW 9.2 mph - N/A   Clear
9:59 AM 60.1 °F 40.5 °F 48% 29.88 in 10.0 mi West 10.4 mph - N/A   Clear
10:16 AM 61.0 °F 41.0 °F 48% 29.88 in 10.0 mi WNW 12.7 mph - N/A   Clear
10:35 AM 62.1 °F 39.6 °F 44% 29.89 in 10.0 mi WNW 18.4 mph 24.2 mph N/A   Clear
10:36 AM 62.1 °F 39.4 °F 43% 29.89 in 10.0 mi WNW 15.0 mph 24.2 mph N/A   Clear
10:55 AM 62.6 °F 35.8 °F 37% 29.89 in 10.0 mi West 16.1 mph 24.2 mph N/A   Clear
11:15 AM 63.5 °F 36.3 °F 36% 29.89 in 10.0 mi West 15.0 mph 25.3 mph N/A   Clear
11:20 AM 63.9 °F 36.5 °F 36% 29.90 in 10.0 mi West 13.8 mph 21.9 mph N/A   Scattered Clouds
11:37 AM 64.0 °F 34.2 °F 33% 29.90 in 10.0 mi West 20.7 mph 26.5 mph N/A   Scattered Clouds
11:56 AM 63.7 °F 34.3 °F 34% 29.91 in 10.0 mi WNW 18.4 mph 29.9 mph N/A   Scattered Clouds
12:15 PM 64.4 °F 33.4 °F 32% 29.91 in 10.0 mi WNW 18.4 mph 24.2 mph N/A   Scattered Clouds
12:35 PM 64.0 °F 32.9 °F 31% 29.91 in 10.0 mi West 15.0 mph 23.0 mph N/A   Mostly Cloudy
12:36 PM 64.2 °F 33.6 °F 32% 29.91 in 10.0 mi West 13.8 mph 23.0 mph N/A   Mostly Cloudy
12:59 PM 65.3 °F 31.5 °F 28% 29.92 in 10.0 mi West 15.0 mph 24.2 mph N/A   Mostly Cloudy
1:17 PM 65.5 °F 28.4 °F 25% 29.92 in 10.0 mi WNW 12.7 mph 25.3 mph N/A   Scattered Clouds
1:35 PM 65.8 °F 26.4 °F 23% 29.92 in 10.0 mi WNW 18.4 mph 24.2 mph N/A   Scattered Clouds
1:55 PM 65.8 °F 23.4 °F 20% 29.92 in 10.0 mi WNW 15.0 mph 18.4 mph N/A   Clear
2:15 PM 65.7 °F 26.1 °F 22% 29.93 in 10.0 mi WNW 13.8 mph 21.9 mph N/A   Clear
2:38 PM 65.5 °F 26.6 °F 23% 29.93 in 10.0 mi West 15.0 mph 26.5 mph N/A   Clear
2:56 PM 65.7 °F 30.2 °F 27% 29.93 in 10.0 mi WNW 18.4 mph 25.3 mph N/A   Clear
3:15 PM 65.7 °F 30.7 °F 27% 29.92 in 10.0 mi West 11.5 mph 24.2 mph N/A   Clear
3:35 PM 65.7 °F 27.5 °F 24% 29.94 in 10.0 mi WNW 17.3 mph 24.2 mph N/A   Clear
3:59 PM 65.3 °F 29.8 °F 26% 29.93 in 10.0 mi WNW 13.8 mph 19.6 mph N/A   Clear
4:17 PM 65.7 °F 28.4 °F 25% 29.93 in 10.0 mi WNW 11.5 mph 20.7 mph N/A   Clear
4:35 PM 65.8 °F 29.5 °F 26% 29.93 in 10.0 mi WNW 13.8 mph 17.3 mph N/A   Clear
4:36 PM 65.7 °F 29.5 °F 26% 29.93 in 10.0 mi WNW 12.7 mph 17.3 mph N/A   Clear
4:55 PM 65.8 °F 30.2 °F 26% 29.93 in 10.0 mi West 10.4 mph 17.3 mph N/A   Clear
5:15 PM 65.5 °F 29.8 °F 26% 29.92 in 10.0 mi West 11.5 mph 17.3 mph N/A   Clear
5:38 PM 65.5 °F 29.3 °F 26% 29.92 in 10.0 mi West 10.4 mph - N/A   Clear
5:56 PM 64.8 °F 31.1 °F 28% 29.92 in 10.0 mi West 8.1 mph - N/A   Clear
6:15 PM 64.4 °F 31.8 °F 30% 29.92 in 10.0 mi WSW 4.6 mph - N/A   Clear
6:16 PM 64.4 °F 31.8 °F 30% 29.92 in 10.0 mi WSW 4.6 mph - N/A   Clear
6:35 PM 63.7 °F 33.3 °F 32% 29.91 in 10.0 mi SW 5.8 mph - N/A   Clear
6:36 PM 63.7 °F 33.4 °F 32% 29.91 in 10.0 mi SW 5.8 mph - N/A   Clear
6:59 PM 62.6 °F 34.7 °F 35% 29.91 in 10.0 mi Calm Calm - N/A   Clear
7:17 PM 59.9 °F 38.3 °F 45% 29.91 in 10.0 mi Calm Calm - N/A   Clear
7:36 PM 56.3 °F 41.0 °F 57% 29.92 in 10.0 mi Calm Calm - N/A   Clear
7:55 PM 55.4 °F 41.2 °F 59% 29.92 in 10.0 mi Calm Calm - N/A   Clear
7:56 PM 55.6 °F 41.2 °F 58% 29.92 in 10.0 mi South 3.5 mph - N/A   Clear
8:15 PM 55.0 °F 40.8 °F 59% 29.92 in 10.0 mi South 3.5 mph - N/A   Clear
8:16 PM 55.0 °F 41.0 °F 59% 29.92 in 10.0 mi South 3.5 mph - N/A   Clear
8:39 PM 53.6 °F 40.8 °F 62% 29.92 in 10.0 mi Calm Calm - N/A   Clear
8:57 PM 54.3 °F 40.1 °F 59% 29.92 in 10.0 mi Calm Calm - N/A   Clear
9:15 PM 52.7 °F 40.3 °F 63% 29.93 in 10.0 mi Calm Calm - N/A   Clear
9:35 PM 52.2 °F 40.8 °F 65% 29.93 in 10.0 mi Calm Calm - N/A   Clear
9:55 PM 52.3 °F 41.2 °F 66% 29.94 in 10.0 mi SSW 4.6 mph - N/A   Clear
10:18 PM 53.2 °F 40.6 °F 62% 29.94 in 10.0 mi South 3.5 mph - N/A   Clear
10:35 PM 52.9 °F 40.6 °F 63% 29.94 in 10.0 mi Calm Calm - N/A   Clear
10:55 PM 53.8 °F 40.1 °F 60% 29.93 in 10.0 mi South 5.8 mph - N/A   Clear
11:39 PM 52.3 °F 40.3 °F 64% 29.92 in 10.0 mi South 3.5 mph - N/A   Clear
11:57 PM 52.9 °F 40.1 °F 62% 29.92 in 10.0 mi SSE 3.5 mph - N/A   Clear